Location: Aghk�ilisa
(40.0189°N, 45.0097°E)
Time: 21:39:44
(UTC+00:00)

NOAA 11 - Pass Details

Date: 21 October 2019
Orbit: 833 x 850 km, 98.4° (Epoch: 19 November)

Event Time Altitude Azimuth Distance (km) Brightness Sun altitude
Rises 15:40:34 0° 158° (SSE) 3,381 7.1 -17.6°
Reaches altitude 10° 15:42:55 10° 156° (SSE) 2,448 6.4 -18.0°
Maximum altitude 15:48:19 69° 74° (ENE) 893 4.1 -19.0°
Drops below altitude 10° 15:53:43 10° 352° (N) 2,454 6.7 -20.1°
Sets 15:56:05 0° 350° (N) 3,391 7.5 -20.5°
